Vorticity
9 9 11 12 13 14 13 12 11 10 10 10 11 13 15 16 18 21 24 29 34 35 36 34 29 25 24 20 15 10 9 9 11 11 10 9 10 10 5 -2 -3 1 1 3 8 9 7 6 6 6 3 3 10 17 13 1 -5 0 7 9 10 12 12
7 9 13 13 13 14 14 14 12 10 10 11 12 13 15 17 17 16 16 20 27 33 37 39 38 34 30 27 22 17 12 10 11 12 12 11 9 10 11 7 1 -2 -3 -3 -0 4 6 6 8 11 9 5 7 13 17 14 3 -5 -2 4 5 6 9
9 12 14 13 12 13 13 13 13 11 10 11 12 12 14 18 17 14 13 14 18 25 32 38 42 43 41 38 33 27 19 14 12 12 13 12 12 10 10 11 9 5 2 -1 -4 -3 2 3 3 8 12 10 8 6 7 14 14 2 -5 0 4 4 4
11 12 12 12 13 13 12 12 13 13 11 9 9 10 12 17 18 15 13 14 16 19 23 28 33 38 43 45 44 39 31 22 15 13 13 14 13 12 10 11 12 11 9 9 6 1 -1 0 -1 -1 1 2 2 1 -1 4 15 14 1 -5 -3 1 6
9 10 10 11 13 13 12 13 14 14 13 10 10 12 14 17 18 17 15 13 16 19 20 20 21 23 29 37 43 44 42 37 28 18 13 14 15 15 13 11 11 12 11 11 15 16 10 6 6 2 -4 -8 -7 -2 1 1 9 18 13 2 -6 -11 -6
7 8 9 11 12 12 12 13 14 14 13 12 12 13 15 18 18 17 13 10 10 14 18 20 19 16 16 24 33 40 42 43 40 33 22 15 15 17 16 14 11 11 10 6 8 16 18 16 16 19 17 9 2 2 5 5 6 11 13 13 10 -1 -13
7 8 9 10 11 13 14 13 13 14 12 12 14 14 14 16 17 16 13 11 9 9 13 19 24 22 18 18 24 31 36 39 41 41 35 25 19 19 20 18 14 13 12 7 0 1 8 11 11 16 22 23 21 19 17 14 11 10 9 9 11 13 7
6 8 9 9 10 12 14 14 14 14 11 9 11 13 15 15 15 15 15 14 13 9 7 11 18 23 23 22 23 25 29 34 37 39 40 34 26 21 21 21 18 16 16 13 7 1 1 4 3 -0 1 3 4 8 12 14 14 12 13 13 8 7 11
6 7 8 10 11 11 13 14 15 14 12 10 8 8 11 12 12 14 15 15 14 11 9 7 7 12 16 19 23 25 26 28 31 34 37 37 32 23 21 24 23 21 21 20 15 8 3 5 10 7 2 2 1 -2 -3 -1 0 -2 1 11 11 6 6
7 7 8 10 11 10 11 13 14 14 12 11 9 7 8 10 11 12 13 14 15 14 12 10 8 7 7 9 14 21 26 29 30 31 32 34 34 26 18 25 30 24 24 27 24 16 6 -0 9 21 23 21 19 17 11 7 3 -1 -3 1 5 6 9
7 6 8 10 12 11 10 11 13 14 12 12 11 9 7 8 8 10 10 11 14 15 13 12 11 10 8 7 8 11 19 28 32 34 35 33 35 32 18 18 30 29 22 26 29 26 17 0 -7 5 21 27 26 23 22 19 16 13 11 10 7 6 12
6 6 7 9 13 13 11 10 11 13 14 13 13 11 10 9 9 9 8 8 11 13 13 12 11 11 11 11 10 8 10 21 29 34 38 35 37 41 22 4 18 29 20 20 26 28 26 17 -2 -13 -6 12 25 28 25 21 18 17 17 17 16 14 13
5 5 7 10 14 15 12 10 10 12 13 13 13 11 10 10 9 8 8 8 9 9 10 11 10 10 11 11 12 10 7 13 23 29 37 37 37 46 32 2 2 21 20 17 26 31 30 26 17 1 -11 -8 7 20 26 25 20 18 18 17 16 13 7
7 9 12 16 17 17 13 10 9 10 12 13 14 13 13 11 10 9 9 9 9 8 8 10 9 9 10 9 9 11 9 9 14 21 31 37 37 47 46 17 -4 5 16 16 20 30 37 34 27 19 7 -4 -6 2 15 24 22 19 19 18 14 9 4
17 19 20 19 19 18 16 15 15 14 14 14 13 12 12 12 10 9 10 9 10 11 10 9 9 8 9 9 7 9 10 9 9 12 21 31 34 40 51 42 13 -3 2 12 15 21 30 34 33 29 21 10 0 -4 1 12 17 18 18 18 17 12 9
20 19 19 17 18 19 19 20 20 19 19 18 17 14 13 14 13 12 13 14 14 15 13 10 10 8 8 9 8 8 9 9 8 9 12 20 26 29 38 48 42 19 -0 -3 3 10 17 22 24 25 24 19 11 2 -2 1 6 10 12 14 16 15 13
14 14 14 15 17 18 19 21 22 21 21 20 19 17 14 13 14 13 14 14 12 11 11 9 9 9 9 9 8 7 8 8 8 9 10 13 19 24 26 34 44 46 32 12 -2 -5 1 9 14 16 18 20 17 9 2 -1 0 4 8 10 11 14 16
19 18 17 16 16 15 14 14 16 17 19 20 22 23 19 15 12 10 9 9 8 8 8 8 8 9 10 11 10 8 8 8 7 7 9 9 11 16 22 23 26 35 44 42 29 13 2 0 3 7 12 18 22 20 13 5 1 1 4 9 10 10 10
16 17 18 17 17 17 16 15 15 14 14 15 17 19 19 16 13 12 11 10 10 10 9 10 10 9 9 10 9 8 7 7 7 7 7 8 8 9 12 16 18 20 26 33 40 39 30 18 9 5 5 8 13 19 21 16 10 3 -1 2 5 6 6
8 7 8 9 9 9 11 12 12 13 14 15 16 16 17 17 16 16 16 15 15 14 14 13 13 13 13 12 11 11 10 8 7 8 8 7 7 8 7 7 9 13 15 18 22 30 35 35 30 23 17 11 7 8 12 15 15 12 5 1 -1 -0 1
14 16 17 19 19 19 19 19 17 15 12 11 11 11 11 13 14 14 14 15 14 13 12 11 11 11 11 11 10 10 11 10 8 9 11 10 9 9 9 8 7 6 7 10 13 17 22 27 32 33 31 27 21 15 12 12 14 16 15 12 8 4 1
24 24 22 21 21 22 25 28 32 33 27 23 21 20 20 21 22 21 21 21 22 22 22 22 21 21 20 19 19 17 15 15 13 10 10 12 12 11 9 10 10 9 7 6 6 9 12 15 19 24 28 32 32 29 25 22 19 18 18 18 18 16 14
8 6 5 7 11 13 14 16 21 25 26 27 27 25 24 23 22 22 21 20 20 21 23 24 26 27 28 28 30 31 30 29 27 25 23 21 20 19 16 13 12 11 10 9 7 6 7 8 9 11 15 19 23 26 28 28 26 24 22 20 19 18 18
6 5 8 12 14 14 12 12 14 15 16 17 16 14 12 11 11 12 11 11 10 9 9 10 13 15 17 18 19 20 22 24 24 26 29 30 30 29 27 26 25 22 18 15 11 9 8 8 8 7 7 8 10 13 17 21 24 26 26 25 24 21 18
15 18 20 20 17 14 12 12 14 15 13 13 13 12 10 10 12 12 12 12 12 11 11 10 10 9 9 10 12 12 13 14 14 15 17 18 19 19 20 22 24 27 29 28 25 22 18 14 12 11 9 8 7 7 8 10 13 17 21 24 26 27 26
12 13 14 14 13 12 13 13 13 12 10 10 9 9 9 11 11 10 9 10 11 13 14 14 14 13 10 9 10 10 10 11 12 13 14 14 14 13 13 14 15 15 17 20 23 27 28 27 26 24 22 18 14 11 9 8 7 8 10 13 18 22 27
14 14 11 8 6 6 6 6 6 7 10 9 8 10 13 13 11 9 11 14 17 18 17 15 14 13 13 13 12 11 11 11 11 12 12 13 15 15 15 15 15 15 14 14 15 17 19 22 24 25 26 28 26 21 17 13 11 10 8 7 8 10 13
18 24 24 20 16 12 9 9 10 10 12 11 11 14 16 13 11 12 15 17 20 22 22 20 18 15 13 14 15 15 14 13 12 13 12 9 7 7 8 9 10 12 14 15 14 11 10 11 12 15 17 21 25 27 26 24 20 18 15 12 10 9 8
18 24 26 25 25 21 14 13 14 13 14 15 16 16 14 10 9 10 10 10 13 17 20 22 24 24 23 22 19 16 16 17 18 18 17 16 15 13 13 13 13 13 13 12 12 14 15 14 13 13 13 14 16 19 24 27 27 26 24 21 17 15 12
12 19 22 20 23 26 23 20 19 17 17 18 16 12 9 7 7 7 6 6 8 11 13 16 19 20 22 24 24 21 17 17 19 20 20 21 23 25 27 26 25 24 22 19 15 11 9 11 14 16 15 13 12 13 15 20 24 26 26 25 23 20 17
10 16 19 14 12 17 21 22 22 20 18 15 12 10 8 7 7 8 6 6 7 8 8 11 15 18 18 19 21 22 20 18 16 16 17 19 24 31 35 34 30 28 24 20 15 13 17 26 33 35 33 29 25 19 15 15 18 20 22 24 25 24 22
11 11 13 11 6 6 10 13 14 14 13 11 10 9 7 5 6 7 6 6 8 8 7 8 10 15 18 18 15 15 17 20 20 16 12 10 14 23 29 31 34 37 37 34 32 33 34 33 31 33 39 45 45 38 26 18 17 18 21 23 26 26 25
13 13 12 11 9 6 5 7 8 7 6 6 6 6 4 5 6 6 5 8 10 9 9 10 9 11 16 19 19 16 14 16 20 21 18 13 9 10 14 19 23 28 31 33 34 33 27 17 13 16 23 30 36 35 29 23 21 20 21 24 26 27 27
6 10 12 14 14 10 6 5 6 5 3 4 5 6 6 6 7 7 8 9 11 10 10 9 9 10 12 14 16 18 18 16 15 17 21 21 18 15 15 15 15 15 17 20 24 27 27 24 23 23 20 19 20 22 21 21 22 21 23 25 25 25 24
4 5 9 12 15 15 11 6 5 6 7 6 8 10 12 11 11 11 10 9 9 10 10 8 8 8 9 9 11 14 18 19 16 13 13 15 16 17 17 16 16 16 15 16 18 20 23 27 29 29 29 28 28 28 28 29 31 32 32 32 30 27 25
5 6 10 11 13 17 16 11 6 5 6 6 8 11 15 17 17 14 12 10 9 9 9 8 7 6 5 7 10 11 13 15 17 16 16 15 14 14 14 14 15 16 16 17 18 17 17 17 19 20 21 22 22 23 22 22 22 23 24 25 25 23 20
Height
5276 5276 5277 5279 5280 5281 5283 5285 5287 5289 5291 5294 5297 5300 5303 5305 5308 5311 5314 5317 5319 5323 5326 5331 5337 5342 5349 5356 5362 5367 5374 5381 5387 5394 5400 5406 5413 5418 5424 5429 5432 5438 5448 5455 5460 5468 5474 5479 5484 5489 5496 5502 5505 5509 5513 5516 5518 5520 5522 5526 5529 5533 5538
5271 5273 5274 5275 5276 5277 5279 5280 5282 5284 5287 5290 5292 5295 5298 5300 5303 5306 5309 5311 5313 5316 5318 5322 5327 5333 5339 5344 5350 5355 5362 5368 5374 5380 5386 5393 5400 5406 5412 5418 5421 5426 5435 5441 5447 5456 5464 5469 5473 5479 5485 5491 5495 5499 5503 5506 5509 5512 5516 5519 5521 5524 5529
5268 5269 5271 5272 5273 5274 5275 5277 5279 5280 5283 5285 5288 5291 5293 5295 5298 5301 5303 5305 5308 5309 5311 5315 5319 5325 5329 5333 5338 5344 5350 5355 5362 5367 5374 5380 5387 5393 5400 5406 5410 5415 5422 5428 5435 5443 5452 5459 5464 5469 5474 5480 5484 5488 5492 5497 5500 5504 5508 5512 5513 5516 5520
5265 5266 5267 5268 5269 5270 5271 5273 5274 5276 5278 5281 5283 5286 5288 5291 5293 5296 5298 5300 5302 5303 5305 5308 5312 5316 5319 5322 5326 5332 5337 5343 5350 5355 5361 5367 5374 5380 5387 5394 5400 5405 5412 5417 5421 5429 5439 5448 5453 5457 5462 5467 5472 5477 5483 5488 5491 5494 5499 5503 5506 5508 5511
5262 5263 5264 5264 5266 5267 5267 5269 5270 5272 5274 5277 5279 5281 5284 5286 5289 5291 5293 5295 5297 5298 5300 5303 5306 5309 5310 5312 5316 5321 5327 5332 5338 5343 5349 5355 5361 5368 5375 5382 5388 5395 5402 5406 5409 5416 5426 5435 5441 5446 5451 5456 5461 5467 5473 5478 5482 5486 5490 5494 5498 5501 5503
5257 5258 5260 5261 5262 5263 5264 5265 5267 5268 5271 5273 5275 5277 5279 5282 5284 5286 5288 5290 5291 5293 5295 5297 5300 5302 5303 5305 5309 5313 5317 5321 5326 5331 5338 5344 5349 5356 5362 5369 5376 5383 5391 5396 5400 5406 5414 5422 5429 5435 5440 5445 5450 5455 5461 5467 5473 5477 5481 5486 5490 5493 5495
5253 5255 5257 5258 5259 5260 5261 5262 5263 5265 5267 5269 5271 5273 5275 5278 5279 5281 5283 5285 5286 5288 5290 5292 5294 5296 5298 5300 5303 5306 5309 5312 5316 5320 5326 5333 5339 5344 5349 5355 5364 5371 5378 5385 5390 5395 5403 5411 5417 5423 5429 5434 5438 5443 5450 5457 5464 5469 5474 5478 5481 5484 5486
5251 5252 5254 5255 5256 5257 5257 5258 5260 5261 5263 5265 5267 5269 5271 5273 5275 5277 5279 5280 5282 5284 5286 5288 5289 5291 5293 5295 5297 5299 5301 5303 5307 5311 5316 5323 5329 5333 5337 5343 5352 5359 5366 5373 5379 5385 5393 5400 5405 5411 5418 5423 5428 5435 5443 5450 5456 5461 5465 5468 5471 5474 5475
5248 5249 5250 5252 5253 5254 5254 5255 5256 5258 5260 5261 5263 5266 5268 5270 5271 5273 5275 5276 5278 5280 5281 5283 5285 5287 5289 5290 5292 5293 5295 5296 5299 5303 5307 5313 5319 5324 5328 5333 5340 5348 5354 5360 5368 5376 5383 5389 5394 5401 5408 5414 5421 5429 5435 5439 5443 5448 5453 5456 5460 5462 5464
5245 5247 5248 5249 5249 5250 5251 5252 5253 5254 5256 5257 5259 5262 5264 5266 5268 5270 5271 5273 5274 5276 5277 5279 5281 5283 5285 5286 5287 5288 5290 5291 5293 5295 5299 5303 5308 5314 5319 5324 5330 5336 5343 5349 5355 5365 5374 5380 5385 5392 5399 5406 5413 5417 5421 5425 5430 5436 5441 5444 5448 5451 5455
5243 5244 5245 5245 5246 5247 5248 5249 5250 5251 5252 5254 5256 5258 5260 5262 5265 5266 5268 5270 5271 5272 5274 5275 5277 5279 5281 5282 5283 5284 5285 5286 5288 5290 5292 5295 5299 5305 5311 5316 5321 5327 5333 5339 5345 5354 5363 5371 5378 5385 5391 5396 5400 5404 5409 5415 5420 5424 5429 5434 5438 5443 5446
5240 5241 5242 5243 5243 5244 5245 5246 5247 5248 5249 5250 5252 5254 5256 5258 5261 5263 5265 5266 5268 5269 5270 5272 5273 5275 5276 5278 5279 5280 5281 5282 5283 5285 5286 5288 5292 5297 5303 5309 5314 5319 5325 5330 5335 5343 5353 5362 5369 5376 5382 5387 5391 5395 5399 5404 5408 5413 5418 5424 5429 5433 5436
5238 5239 5239 5240 5240 5241 5242 5243 5244 5245 5245 5247 5248 5250 5252 5254 5256 5258 5260 5262 5264 5265 5267 5268 5269 5271 5272 5274 5275 5276 5277 5278 5279 5280 5282 5284 5286 5290 5296 5302 5308 5313 5318 5322 5327 5334 5343 5352 5359 5366 5373 5378 5381 5384 5387 5392 5398 5403 5408 5413 5417 5421 5425
5235 5236 5236 5237 5237 5238 5239 5240 5240 5241 5242 5243 5244 5246 5247 5249 5251 5254 5256 5258 5260 5262 5263 5265 5266 5267 5269 5270 5271 5273 5274 5275 5275 5276 5278 5280 5283 5286 5291 5296 5302 5307 5311 5316 5321 5327 5335 5342 5348 5354 5361 5366 5369 5374 5378 5383 5388 5392 5396 5400 5405 5409 5413
5232 5233 5233 5233 5234 5235 5236 5237 5237 5238 5239 5239 5240 5242 5243 5245 5247 5249 5252 5254 5256 5258 5260 5261 5262 5263 5265 5266 5268 5269 5271 5272 5273 5273 5275 5276 5279 5282 5286 5291 5296 5301 5305 5310 5315 5320 5326 5331 5337 5343 5348 5353 5358 5364 5368 5372 5376 5379 5384 5389 5394 5398 5403
5230 5230 5230 5230 5231 5232 5232 5233 5234 5235 5235 5236 5237 5238 5240 5241 5243 5246 5248 5250 5252 5254 5255 5257 5258 5259 5261 5262 5264 5265 5267 5269 5270 5271 5272 5274 5275 5278 5281 5285 5290 5294 5299 5303 5308 5312 5316 5321 5326 5332 5337 5342 5347 5352 5357 5360 5365 5370 5375 5381 5386 5391 5396
5228 5228 5228 5228 5229 5229 5229 5230 5231 5231 5232 5233 5234 5235 5236 5238 5240 5243 5245 5246 5248 5249 5251 5252 5253 5255 5256 5258 5259 5261 5263 5265 5266 5268 5269 5271 5273 5275 5278 5281 5284 5288 5292 5296 5300 5304 5308 5312 5317 5322 5327 5332 5337 5342 5347 5352 5358 5363 5368 5372 5377 5382 5387
5228 5228 5227 5227 5227 5227 5228 5228 5228 5229 5230 5230 5231 5232 5234 5236 5238 5240 5241 5243 5244 5245 5246 5248 5249 5251 5252 5254 5256 5257 5258 5260 5262 5264 5266 5268 5271 5273 5275 5278 5280 5282 5286 5289 5293 5297 5301 5306 5310 5315 5320 5323 5328 5333 5338 5344 5350 5355 5358 5362 5368 5373 5377
5228 5227 5227 5227 5226 5226 5226 5227 5227 5227 5228 5229 5230 5231 5232 5233 5235 5237 5238 5239 5240 5241 5242 5244 5245 5247 5248 5250 5252 5253 5254 5256 5258 5260 5263 5265 5267 5270 5272 5274 5275 5278 5281 5284 5287 5290 5294 5298 5302 5307 5311 5314 5318 5323 5328 5333 5338 5343 5348 5353 5358 5363 5367
5228 5227 5227 5226 5226 5226 5226 5226 5226 5226 5227 5227 5228 5229 5230 5231 5232 5233 5234 5236 5237 5238 5239 5240 5241 5242 5244 5246 5247 5249 5250 5251 5253 5255 5258 5261 5263 5266 5268 5270 5271 5273 5276 5278 5281 5284 5287 5290 5294 5298 5302 5306 5310 5314 5319 5323 5327 5333 5339 5343 5348 5353 5359
5228 5227 5227 5226 5225 5225 5225 5224 5225 5225 5225 5226 5227 5227 5228 5229 5230 5231 5232 5233 5234 5235 5236 5236 5237 5239 5240 5241 5243 5244 5245 5247 5248 5250 5253 5256 5259 5261 5263 5264 5267 5269 5271 5273 5275 5278 5281 5284 5287 5291 5295 5299 5304 5308 5311 5314 5319 5324 5328 5332 5338 5344 5349
5228 5227 5227 5226 5226 5225 5224 5224 5224 5223 5224 5224 5225 5225 5226 5227 5228 5229 5229 5230 5231 5232 5233 5233 5234 5235 5236 5237 5239 5240 5241 5243 5244 5245 5248 5251 5254 5255 5257 5259 5261 5263 5265 5267 5269 5272 5276 5279 5282 5285 5289 5293 5297 5300 5303 5306 5310 5314 5317 5321 5327 5332 5337
5229 5229 5228 5227 5226 5226 5225 5225 5224 5224 5224 5224 5224 5225 5225 5226 5227 5228 5228 5229 5230 5230 5231 5231 5232 5233 5234 5234 5235 5236 5237 5239 5240 5241 5244 5246 5248 5249 5251 5253 5256 5258 5260 5262 5264 5266 5270 5273 5276 5279 5282 5286 5289 5291 5294 5297 5300 5303 5307 5311 5316 5320 5324
5230 5229 5228 5228 5227 5226 5226 5225 5225 5225 5224 5224 5225 5225 5226 5226 5227 5228 5228 5229 5229 5230 5230 5230 5231 5231 5231 5232 5233 5233 5234 5235 5236 5237 5239 5241 5242 5243 5244 5246 5249 5252 5253 5256 5258 5260 5264 5267 5270 5273 5276 5278 5281 5283 5286 5288 5291 5295 5299 5302 5306 5310 5314
5231 5230 5229 5228 5227 5227 5226 5226 5225 5225 5225 5225 5226 5226 5227 5227 5227 5228 5228 5229 5229 5229 5229 5229 5229 5229 5230 5230 5230 5231 5232 5232 5233 5234 5236 5237 5238 5239 5239 5241 5243 5245 5247 5249 5251 5254 5256 5260 5263 5266 5268 5270 5272 5275 5278 5281 5284 5288 5291 5295 5299 5303 5307
5231 5230 5230 5229 5228 5228 5227 5227 5226 5226 5226 5226 5227 5227 5227 5227 5227 5227 5228 5228 5228 5228 5228 5228 5228 5228 5228 5229 5229 5229 5229 5230 5231 5232 5233 5233 5234 5235 5235 5236 5238 5240 5241 5243 5245 5248 5250 5252 5255 5258 5259 5261 5263 5267 5270 5273 5277 5281 5284 5289 5293 5297 5300
5232 5231 5230 5229 5229 5228 5228 5227 5227 5227 5227 5227 5227 5227 5227 5227 5227 5227 5227 5227 5227 5227 5227 5226 5226 5226 5227 5227 5227 5227 5227 5227 5228 5229 5229 5230 5231 5231 5232 5232 5233 5235 5236 5238 5240 5242 5244 5246 5247 5249 5251 5253 5256 5259 5262 5266 5270 5274 5278 5282 5286 5290 5294
5233 5231 5230 5229 5229 5229 5228 5228 5228 5227 5227 5228 5228 5227 5228 5227 5227 5227 5227 5227 5227 5227 5226 5226 5225 5225 5225 5224 5224 5224 5224 5225 5225 5225 5226 5227 5227 5227 5228 5228 5229 5230 5231 5233 5235 5236 5238 5239 5241 5242 5245 5247 5250 5252 5255 5259 5263 5267 5271 5275 5279 5283 5286
5234 5232 5230 5229 5229 5229 5228 5228 5228 5228 5228 5228 5228 5228 5228 5228 5228 5228 5227 5227 5227 5226 5226 5225 5224 5224 5224 5223 5223 5223 5223 5223 5223 5223 5223 5223 5223 5224 5224 5224 5225 5226 5227 5228 5229 5230 5232 5233 5235 5237 5239 5241 5244 5246 5249 5253 5256 5260 5264 5268 5271 5275 5279
5235 5233 5232 5231 5230 5230 5229 5229 5229 5229 5229 5229 5229 5229 5228 5228 5228 5228 5227 5227 5227 5226 5225 5225 5224 5223 5223 5222 5222 5222 5221 5221 5221 5221 5221 5220 5220 5220 5220 5220 5220 5221 5222 5223 5224 5225 5227 5228 5229 5231 5233 5235 5238 5241 5244 5248 5251 5254 5257 5260 5264 5268 5272
5237 5236 5234 5233 5232 5231 5231 5230 5230 5230 5229 5229 5229 5229 5229 5229 5228 5228 5228 5227 5227 5226 5225 5225 5224 5223 5222 5222 5222 5221 5221 5221 5220 5220 5219 5219 5218 5218 5217 5217 5217 5217 5217 5218 5219 5221 5222 5223 5224 5226 5227 5229 5232 5235 5239 5243 5245 5248 5251 5254 5258 5262 5266
5239 5238 5236 5235 5234 5233 5233 5232 5232 5231 5231 5230 5230 5230 5230 5229 5229 5228 5228 5227 5227 5226 5226 5225 5224 5223 5222 5222 5221 5221 5220 5220 5220 5219 5219 5218 5218 5217 5216 5215 5215 5214 5214 5215 5216 5217 5218 5219 5221 5222 5223 5224 5227 5230 5234 5238 5240 5243 5246 5250 5253 5257 5261
5241 5240 5238 5237 5236 5235 5234 5234 5233 5232 5232 5231 5231 5230 5230 5229 5229 5229 5228 5228 5227 5227 5226 5225 5225 5224 5223 5222 5221 5221 5220 5220 5219 5219 5219 5218 5217 5217 5216 5215 5214 5213 5213 5213 5213 5214 5216 5217 5218 5220 5221 5222 5224 5227 5231 5234 5237 5240 5243 5246 5249 5253 5256
5242 5241 5240 5238 5237 5236 5235 5234 5234 5233 5232 5232 5231 5230 5230 5229 5229 5229 5229 5228 5228 5227 5227 5226 5225 5224 5223 5222 5222 5221 5220 5220 5219 5219 5218 5218 5217 5217 5217 5216 5215 5214 5213 5213 5213 5213 5214 5215 5217 5218 5219 5221 5223 5226 5229 5232 5234 5237 5240 5242 5245 5249 5253
5243 5241 5240 5239 5238 5237 5236 5235 5234 5234 5233 5232 5232 5231 5230 5230 5230 5229 5229 5229 5228 5228 5227 5226 5226 5225 5224 5223 5222 5221 5221 5220 5220 5219 5219 5218 5217 5217 5217 5217 5216 5216 5215 5215 5215 5215 5215 5216 5217 5218 5219 5220 5222 5225 5227 5230 5232 5235 5238 5241 5244 5247 5250
5243 5241 5240 5238 5237 5236 5235 5235 5234 5234 5233 5232 5232 5231 5231 5230 5230 5229 5229 5229 5228 5228 5227 5227 5226 5225 5225 5224 5223 5222 5221 5221 5220 5220 5219 5219 5218 5218 5218 5217 5217 5217 5217 5217 5217 5217 5218 5218 5219 5220 5221 5222 5224 5225 5227 5229 5232 5234 5237 5240 5243 5246 5250